VJT716 ENCN-LFKF

Flight info

Callsign VJT716
Flight time N/A
Altitude 38000
Route RASVI M609 BAKOG/N0453F400 M609 BAVTA/N0452F390 P992 ATTUS DCT BASUM/N0452F400 DCT TIVUN/N0451F410 DCT EDISA Y852 NATOR N850 ODINA DCT ERTEV DCT TORTU
Aircraft CL60/M-SBDE1E2E3FGHIJ1J4J5J7M3RWXYZ/LB1V1D1

Departure

Time 2026-04-24 14:52
Airport Kristiansand Airport (ENCN)

Arrival

Time N/A
Airport Figari Sud-Corse Airport (LFKF)
Time Latitude Longitude Altitude Speed Heading
2026-04-24 14:17 58.20042 8.07332 45 ft 0 kts 313°
2026-04-24 14:50 58.20042 8.07331 46 ft 0 kts 321°
2026-04-24 14:50 58.20049 8.07350 46 ft 4 kts 116°
2026-04-24 14:50 58.20018 8.07389 46 ft 7 kts 186°
2026-04-24 14:50 58.19952 8.07354 46 ft 12 kts 177°
2026-04-24 14:51 58.19855 8.07406 46 ft 16 kts 162°
2026-04-24 14:51 58.19766 8.07459 45 ft 10 kts 162°
2026-04-24 14:51 58.19707 8.07534 45 ft 10 kts 118°
2026-04-24 14:51 58.19741 8.07635 46 ft 13 kts 34°
2026-04-24 14:52 58.20121 8.08133 48 ft 119 kts 34°
2026-04-24 14:52 58.20993 8.09288 343 ft 173 kts 35°
2026-04-24 14:52 58.22046 8.10735 1000 ft 207 kts 34°
2026-04-24 14:52 58.23194 8.12282 1921 ft 205 kts 31°
2026-04-24 14:53 58.24366 8.13786 2721 ft 208 kts 31°
2026-04-24 14:53 58.25555 8.15335 3472 ft 207 kts 31°
2026-04-24 14:53 58.26712 8.16855 4323 ft 203 kts 30°
2026-04-24 14:53 58.27845 8.18364 5248 ft 205 kts 30°
2026-04-24 14:54 58.28843 8.20291 6173 ft 218 kts 51°
2026-04-24 14:54 58.29422 8.23077 7119 ft 249 kts 76°
2026-04-24 14:54 58.29164 8.26508 8067 ft 280 kts 112°
2026-04-24 14:54 58.28034 8.29509 8991 ft 292 kts 135°
2026-04-24 14:55 58.26356 8.31695 9958 ft 297 kts 158°
2026-04-24 14:55 58.24361 8.32645 10902 ft 303 kts 177°
2026-04-24 14:55 58.22234 8.32622 11815 ft 313 kts 191°
2026-04-24 14:55 58.20073 8.31997 12751 ft 325 kts 194°
2026-04-24 14:56 58.17809 8.31299 13665 ft 337 kts 194°
2026-04-24 14:56 58.15469 8.30585 14637 ft 349 kts 194°
2026-04-24 14:56 58.13043 8.29847 15551 ft 359 kts 193°
2026-04-24 14:56 58.10582 8.29102 16429 ft 367 kts 194°
2026-04-24 14:57 58.08039 8.28334 17418 ft 373 kts 193°
2026-04-24 14:57 58.05505 8.27570 18315 ft 378 kts 193°
2026-04-24 14:57 58.02893 8.26785 19263 ft 381 kts 193°
2026-04-24 14:57 58.00299 8.26007 20192 ft 384 kts 194°
2026-04-24 14:58 57.97666 8.25218 21111 ft 385 kts 194°
2026-04-24 14:58 57.95036 8.24432 22046 ft 385 kts 194°
2026-04-24 14:58 57.92401 8.23646 22991 ft 384 kts 194°
2026-04-24 14:58 57.89743 8.22844 23350 ft 401 kts 194°
2026-04-24 14:59 57.86938 8.21997 23624 ft 418 kts 194°
2026-04-24 14:59 57.84019 8.21125 24100 ft 428 kts 194°
2026-04-24 14:59 57.81084 8.20253 24747 ft 433 kts 194°
2026-04-24 14:59 57.78100 8.19369 25432 ft 436 kts 194°
2026-04-24 15:00 57.75089 8.18478 26120 ft 439 kts 194°
2026-04-24 15:00 57.72066 8.17585 26761 ft 441 kts 194°
2026-04-24 15:00 57.69032 8.16690 27373 ft 444 kts 194°
2026-04-24 15:00 57.65933 8.15776 27920 ft 448 kts 194°
2026-04-24 15:01 57.62880 8.14877 28426 ft 452 kts 194°
2026-04-24 15:01 57.59783 8.13966 28939 ft 454 kts 194°
2026-04-24 15:01 57.56631 8.13041 29423 ft 458 kts 194°
2026-04-24 15:01 57.53471 8.12115 29907 ft 460 kts 194°
2026-04-24 15:02 57.50299 8.11188 30386 ft 462 kts 194°
2026-04-24 15:02 57.47137 8.10265 30795 ft 465 kts 194°
2026-04-24 15:02 57.43963 8.09339 31205 ft 467 kts 194°
2026-04-24 15:02 57.40757 8.08407 31658 ft 467 kts 194°
2026-04-24 15:03 57.37545 8.07475 32041 ft 468 kts 194°
2026-04-24 15:03 57.34349 8.06548 32401 ft 469 kts 194°
2026-04-24 15:03 57.31129 8.05661 32707 ft 473 kts 192°
2026-04-24 15:03 57.27851 8.05326 33112 ft 477 kts 184°
2026-04-24 15:04 57.24531 8.05711 33545 ft 478 kts 180°
2026-04-24 15:04 57.21255 8.06298 34020 ft 475 kts 180°
2026-04-24 15:04 57.17951 8.06879 34466 ft 473 kts 180°
2026-04-24 15:04 57.14738 8.07441 34856 ft 470 kts 180°
2026-04-24 15:05 57.11467 8.08011 35198 ft 469 kts 180°
2026-04-24 15:05 57.08255 8.08568 35485 ft 469 kts 180°
2026-04-24 15:05 57.05033 8.09125 35753 ft 469 kts 180°
2026-04-24 15:05 57.01798 8.09683 36034 ft 468 kts 179°
2026-04-24 15:06 56.98566 8.10238 36281 ft 468 kts 179°
2026-04-24 15:06 56.95310 8.10797 36560 ft 468 kts 179°
2026-04-24 15:06 56.92065 8.11353 36870 ft 467 kts 179°
2026-04-24 15:06 56.88829 8.11905 37162 ft 468 kts 179°
2026-04-24 15:07 56.85588 8.12458 37516 ft 466 kts 179°
2026-04-24 15:07 56.82377 8.13004 37805 ft 466 kts 179°
2026-04-24 15:07 56.79153 8.13551 38033 ft 466 kts 179°
2026-04-24 15:07 56.75957 8.14092 38276 ft 466 kts 179°
2026-04-24 15:08 56.72731 8.14637 38496 ft 466 kts 179°
2026-04-24 15:08 56.69529 8.15178 38719 ft 465 kts 179°
2026-04-24 15:08 56.66304 8.15720 38915 ft 465 kts 179°
2026-04-24 15:08 56.63099 8.16259 39087 ft 465 kts 179°
2026-04-24 15:09 56.59941 8.16789 39279 ft 464 kts 179°
2026-04-24 15:09 56.56734 8.17326 39493 ft 463 kts 179°
2026-04-24 15:09 56.53508 8.17865 39700 ft 462 kts 179°
2026-04-24 15:09 56.50342 8.18394 39864 ft 461 kts 179°
2026-04-24 15:10 56.47150 8.18912 40010 ft 461 kts 179°
2026-04-24 15:10 56.43968 8.19338 40143 ft 460 kts 180°
2026-04-24 15:10 56.40797 8.19749 40230 ft 460 kts 180°
2026-04-24 15:10 56.37578 8.20168 40361 ft 460 kts 180°
2026-04-24 15:11 56.34427 8.20577 40455 ft 460 kts 180°
2026-04-24 15:11 56.28052 8.21403 40643 ft 459 kts 180°
2026-04-24 15:12 56.21717 8.22223 40840 ft 458 kts 180°
2026-04-24 15:12 56.15387 8.23040 41081 ft 456 kts 179°
2026-04-24 15:12 56.12240 8.23445 41092 ft 458 kts 179°
2026-04-24 15:13 56.05875 8.24262 41100 ft 461 kts 179°
2026-04-24 15:13 55.99480 8.25083 41092 ft 463 kts 179°
2026-04-24 15:14 55.93071 8.25904 41093 ft 466 kts 179°
2026-04-24 15:14 55.86585 8.26733 41107 ft 467 kts 179°
2026-04-24 15:15 55.80093 8.27559 41101 ft 467 kts 179°
2026-04-24 15:15 55.73687 8.28370 41098 ft 465 kts 179°
2026-04-24 15:16 55.67224 8.29186 41106 ft 463 kts 179°
2026-04-24 15:16 55.60825 8.30396 41109 ft 467 kts 171°
2026-04-24 15:17 55.54647 8.33957 41107 ft 471 kts 161°
2026-04-24 15:17 55.48594 8.38204 41113 ft 471 kts 161°
2026-04-24 15:18 55.42485 8.42463 41123 ft 471 kts 161°
2026-04-24 15:18 55.36445 8.46652 41107 ft 470 kts 161°
2026-04-24 15:19 55.30356 8.50858 41113 ft 469 kts 161°
2026-04-24 15:19 55.27722 8.52673 41099 ft 469 kts 161°
2026-04-24 15:20 55.24696 8.54754 41117 ft 469 kts 161°
2026-04-24 15:20 55.18626 8.58915 41108 ft 469 kts 161°
2026-04-24 15:21 55.12577 8.63049 41114 ft 468 kts 161°
2026-04-24 15:21 55.06535 8.67163 41128 ft 467 kts 162°
2026-04-24 15:22 55.00500 8.71255 41113 ft 467 kts 162°
2026-04-24 15:23 54.91428 8.77002 41116 ft 463 kts 170°
2026-04-24 15:23 54.85119 8.78304 41114 ft 456 kts 184°
2026-04-24 15:23 54.81953 8.78315 41110 ft 456 kts 184°
2026-04-24 15:25 54.66167 8.78373 41115 ft 457 kts 184°
2026-04-24 15:26 54.50327 8.78425 41137 ft 455 kts 184°
2026-04-24 15:27 54.31443 8.78482 41142 ft 455 kts 184°
2026-04-24 15:29 54.12477 8.78537 41154 ft 455 kts 184°
2026-04-24 15:31 53.90502 8.78601 41168 ft 453 kts 184°
2026-04-24 15:33 53.65345 8.78671 41166 ft 453 kts 185°
2026-04-24 15:34 53.49643 8.78715 41159 ft 452 kts 185°
2026-04-24 15:35 53.33954 8.78758 41159 ft 454 kts 185°
2026-04-24 15:36 53.27678 8.78775 41162 ft 453 kts 185°
2026-04-24 15:36 53.18231 8.78801 41157 ft 453 kts 185°
2026-04-24 15:37 53.11966 8.78819 41168 ft 452 kts 185°
2026-04-24 15:37 53.05730 8.78836 41174 ft 452 kts 185°
2026-04-24 15:38 52.99450 8.78853 41182 ft 452 kts 185°
2026-04-24 15:38 52.93182 8.78870 41169 ft 452 kts 185°
2026-04-24 15:39 52.86916 8.78887 41163 ft 452 kts 185°
2026-04-24 15:39 52.80608 8.78903 41160 ft 451 kts 185°
2026-04-24 15:40 52.74507 8.77635 41157 ft 440 kts 200°
2026-04-24 15:40 52.68648 8.74971 41157 ft 440 kts 200°
2026-04-24 15:41 52.62763 8.72303 41161 ft 440 kts 200°
2026-04-24 15:41 52.56888 8.69645 41162 ft 439 kts 200°
2026-04-24 15:42 52.51020 8.66996 41161 ft 439 kts 200°
2026-04-24 15:42 52.45137 8.64347 41160 ft 439 kts 200°
2026-04-24 15:43 52.39253 8.61704 41163 ft 439 kts 200°
2026-04-24 15:43 52.33382 8.59073 41161 ft 439 kts 200°
2026-04-24 15:44 52.27506 8.56447 41163 ft 439 kts 200°
2026-04-24 15:44 52.21656 8.53840 41166 ft 438 kts 200°
2026-04-24 15:45 52.15797 8.51235 41160 ft 437 kts 200°
2026-04-24 15:45 52.09947 8.48641 41170 ft 437 kts 200°
2026-04-24 15:46 52.04100 8.46055 41169 ft 437 kts 200°
2026-04-24 15:46 51.98277 8.43487 41173 ft 437 kts 200°
2026-04-24 15:47 51.92418 8.40909 41179 ft 437 kts 200°
2026-04-24 15:47 51.86549 8.38334 41184 ft 437 kts 200°
2026-04-24 15:48 51.80691 8.35772 41170 ft 436 kts 200°
2026-04-24 15:48 51.74869 8.33231 41174 ft 435 kts 199°
2026-04-24 15:49 51.69019 8.30685 41187 ft 435 kts 199°
2026-04-24 15:49 51.63213 8.28164 41181 ft 436 kts 199°
2026-04-24 15:50 51.57379 8.25638 41177 ft 435 kts 199°
2026-04-24 15:50 51.51535 8.23115 41171 ft 435 kts 199°
2026-04-24 15:51 51.45724 8.20612 41171 ft 435 kts 199°
2026-04-24 15:51 51.39889 8.18106 41170 ft 435 kts 199°
2026-04-24 15:52 51.34069 8.15613 41169 ft 434 kts 199°
2026-04-24 15:52 51.28255 8.13129 41168 ft 434 kts 199°
2026-04-24 15:53 51.22447 8.10653 41169 ft 433 kts 199°
2026-04-24 15:53 51.16648 8.08188 41171 ft 433 kts 199°
2026-04-24 15:54 51.10831 8.05722 41170 ft 433 kts 199°
2026-04-24 15:54 51.05054 8.03279 41172 ft 432 kts 199°
2026-04-24 15:55 50.99227 8.00822 41171 ft 432 kts 199°
2026-04-24 15:55 50.93402 7.98752 41181 ft 436 kts 190°
2026-04-24 15:56 50.87294 7.98877 41191 ft 443 kts 178°
2026-04-24 15:56 50.81149 7.99991 41181 ft 444 kts 178°
2026-04-24 15:57 50.75016 8.01089 41186 ft 444 kts 178°
2026-04-24 15:57 50.68893 8.02179 41181 ft 444 kts 178°
2026-04-24 15:58 50.62765 8.03266 41178 ft 444 kts 178°
2026-04-24 15:58 50.56649 8.04345 41170 ft 443 kts 178°
2026-04-24 15:59 50.50528 8.05422 41166 ft 443 kts 178°
2026-04-24 15:59 50.44402 8.06495 41154 ft 443 kts 178°
2026-04-24 16:00 50.38306 8.07560 41156 ft 442 kts 178°
2026-04-24 16:00 50.32211 8.08620 41152 ft 443 kts 177°
2026-04-24 16:01 50.26082 8.09684 41153 ft 443 kts 178°
2026-04-24 16:01 50.19973 8.10741 41149 ft 443 kts 177°
2026-04-24 16:02 50.13867 8.11795 41155 ft 442 kts 177°
2026-04-24 16:02 50.07767 8.12845 41148 ft 442 kts 177°
2026-04-24 16:03 50.01670 8.13892 41144 ft 442 kts 177°
2026-04-24 16:03 49.95574 8.14935 41140 ft 442 kts 177°
2026-04-24 16:04 49.89493 8.15973 41140 ft 442 kts 177°
2026-04-24 16:04 49.83389 8.17012 41139 ft 442 kts 177°
2026-04-24 16:05 49.74203 8.18571 41142 ft 443 kts 177°
2026-04-24 16:06 49.65042 8.20120 41143 ft 442 kts 177°
2026-04-24 16:07 49.55894 8.21661 41144 ft 442 kts 176°
2026-04-24 16:07 49.46777 8.23191 41146 ft 442 kts 176°
2026-04-24 16:08 49.37622 8.24721 41142 ft 443 kts 176°
2026-04-24 16:09 49.28456 8.26248 41140 ft 444 kts 176°
2026-04-24 16:09 49.22332 8.27265 41140 ft 444 kts 176°
2026-04-24 16:11 49.07007 8.29798 41139 ft 443 kts 176°
2026-04-24 16:11 49.00922 8.30800 41141 ft 443 kts 176°
2026-04-24 16:12 48.91715 8.31272 41146 ft 442 kts 181°
2026-04-24 16:13 48.82521 8.31373 41150 ft 443 kts 181°
2026-04-24 16:14 48.70198 8.31518 41151 ft 443 kts 181°
2026-04-24 16:14 48.61012 8.31629 41155 ft 442 kts 181°
2026-04-24 16:15 48.51790 8.31743 41163 ft 441 kts 181°
2026-04-24 16:16 48.42618 8.31856 41153 ft 442 kts 181°
2026-04-24 16:17 48.27245 8.32047 41149 ft 443 kts 181°
2026-04-24 16:18 48.14953 8.32609 41145 ft 444 kts 172°
2026-04-24 16:19 48.05848 8.34844 41148 ft 444 kts 172°
2026-04-24 16:20 47.96732 8.37064 41148 ft 445 kts 172°
2026-04-24 16:20 47.87559 8.39284 41145 ft 446 kts 172°
2026-04-24 16:21 47.78382 8.41487 41147 ft 447 kts 172°
2026-04-24 16:22 47.72272 8.42948 41157 ft 447 kts 172°
2026-04-24 16:22 47.63022 8.44647 41150 ft 446 kts 175°
2026-04-24 16:23 47.56885 8.45546 41156 ft 446 kts 175°
2026-04-24 16:24 47.47635 8.46900 41153 ft 446 kts 175°
2026-04-24 16:24 47.41441 8.47806 41158 ft 446 kts 175°
2026-04-24 16:25 47.35294 8.48703 41160 ft 447 kts 175°
2026-04-24 16:25 47.29115 8.49604 41165 ft 448 kts 175°
2026-04-24 16:26 47.19846 8.50953 41170 ft 448 kts 174°
2026-04-24 16:27 47.10545 8.52305 41181 ft 448 kts 174°
2026-04-24 16:27 47.04341 8.53204 41188 ft 448 kts 174°
2026-04-24 16:28 46.98119 8.54102 41195 ft 449 kts 174°
2026-04-24 16:28 46.88835 8.55439 41205 ft 450 kts 174°
2026-04-24 16:29 46.82579 8.56337 41211 ft 450 kts 174°
2026-04-24 16:30 46.70144 8.58116 41198 ft 449 kts 174°
2026-04-24 16:30 46.63936 8.59002 41194 ft 448 kts 174°
2026-04-24 16:31 46.57730 8.59885 41197 ft 449 kts 174°
2026-04-24 16:31 46.51537 8.60763 41198 ft 449 kts 174°
2026-04-24 16:32 46.45325 8.61642 41198 ft 450 kts 174°
2026-04-24 16:32 46.39109 8.62520 41191 ft 451 kts 174°
2026-04-24 16:33 46.32874 8.63399 41191 ft 453 kts 174°
2026-04-24 16:33 46.26598 8.64282 41190 ft 455 kts 174°
2026-04-24 16:34 46.20278 8.65168 41158 ft 455 kts 174°
2026-04-24 16:34 46.14003 8.66047 41142 ft 454 kts 174°
2026-04-24 16:35 46.07728 8.66890 41103 ft 453 kts 175°
2026-04-24 16:35 46.01464 8.67664 41083 ft 453 kts 175°
2026-04-24 16:36 45.95215 8.68436 41071 ft 453 kts 175°
2026-04-24 16:36 45.88949 8.69208 41069 ft 454 kts 175°
2026-04-24 16:37 45.82660 8.69982 41067 ft 454 kts 175°
2026-04-24 16:37 45.76363 8.70755 41060 ft 455 kts 174°
2026-04-24 16:38 45.70059 8.71527 41059 ft 455 kts 174°
2026-04-24 16:38 45.63763 8.72297 41051 ft 455 kts 174°
2026-04-24 16:39 45.57501 8.73061 41047 ft 454 kts 174°
2026-04-24 16:39 45.51200 8.73828 41044 ft 454 kts 174°
2026-04-24 16:40 45.44924 8.74590 41042 ft 455 kts 174°
2026-04-24 16:40 45.38644 8.75351 41037 ft 456 kts 174°
2026-04-24 16:41 45.32309 8.76117 41033 ft 456 kts 174°
2026-04-24 16:41 45.26009 8.76877 41020 ft 456 kts 174°
2026-04-24 16:42 45.19714 8.77635 41022 ft 456 kts 174°
2026-04-24 16:42 45.13397 8.78394 41018 ft 456 kts 174°
2026-04-24 16:43 45.07091 8.79149 41016 ft 456 kts 174°
2026-04-24 16:43 45.00784 8.79903 41016 ft 455 kts 174°
2026-04-24 16:44 44.94483 8.80655 41014 ft 455 kts 174°
2026-04-24 16:44 44.88129 8.81411 41031 ft 456 kts 174°
2026-04-24 16:45 44.81826 8.82160 41034 ft 457 kts 174°
2026-04-24 16:45 44.75478 8.82912 41039 ft 457 kts 174°
2026-04-24 16:46 44.69172 8.83658 41063 ft 457 kts 174°
2026-04-24 16:46 44.62828 8.84406 41073 ft 458 kts 174°
2026-04-24 16:47 44.56469 8.85155 41078 ft 458 kts 174°
2026-04-24 16:47 44.50111 8.85902 41084 ft 458 kts 174°
2026-04-24 16:48 44.43776 8.86644 41081 ft 459 kts 173°
2026-04-24 16:48 44.37415 8.87388 41090 ft 458 kts 173°
2026-04-24 16:49 44.31050 8.88131 41080 ft 459 kts 173°
2026-04-24 16:49 44.24699 8.88870 41083 ft 459 kts 173°
2026-04-24 16:50 44.18389 8.89604 41088 ft 459 kts 173°
2026-04-24 16:50 44.12004 8.90344 41089 ft 460 kts 173°
2026-04-24 16:51 44.05624 8.91082 41083 ft 460 kts 173°
2026-04-24 16:51 43.99270 8.91815 41088 ft 460 kts 173°
2026-04-24 16:52 43.92919 8.92547 41089 ft 460 kts 173°
2026-04-24 16:52 43.86537 8.93280 41096 ft 460 kts 173°
2026-04-24 16:53 43.80138 8.94015 41093 ft 464 kts 173°
2026-04-24 16:53 43.73668 8.94756 41094 ft 468 kts 173°
2026-04-24 16:54 43.67165 8.95499 41097 ft 472 kts 173°
2026-04-24 16:54 43.60593 8.95946 41095 ft 476 kts 178°
2026-04-24 16:55 43.54014 8.95923 41099 ft 476 kts 178°
2026-04-24 16:55 43.47387 8.95909 41101 ft 475 kts 178°
2026-04-24 16:56 43.41050 8.95900 41106 ft 475 kts 178°
2026-04-24 16:56 43.34484 8.95442 41108 ft 477 kts 183°
2026-04-24 16:57 43.27878 8.94651 41105 ft 478 kts 183°
2026-04-24 16:57 43.24533 8.94256 40924 ft 482 kts 183°
2026-04-24 16:57 43.21192 8.93863 40396 ft 487 kts 183°
2026-04-24 16:58 43.17854 8.93470 39844 ft 482 kts 182°
2026-04-24 16:58 43.14520 8.93079 39275 ft 480 kts 182°
2026-04-24 16:58 43.11224 8.92694 38727 ft 480 kts 182°
2026-04-24 16:58 43.07894 8.92306 38160 ft 479 kts 182°
2026-04-24 16:59 43.04570 8.91919 37584 ft 479 kts 182°
2026-04-24 16:59 43.01275 8.91537 37012 ft 480 kts 182°
2026-04-24 16:59 42.94614 8.90768 35844 ft 481 kts 182°
2026-04-24 17:00 42.91291 8.90386 35259 ft 482 kts 182°
2026-04-24 17:00 42.84569 8.89614 34091 ft 485 kts 182°
2026-04-24 17:00 42.81226 8.89231 33492 ft 487 kts 182°
2026-04-24 17:01 42.74480 8.88460 32308 ft 489 kts 182°
2026-04-24 17:01 42.71106 8.88075 31722 ft 491 kts 182°
2026-04-24 17:02 42.64287 8.87299 30531 ft 493 kts 182°
2026-04-24 17:02 42.60873 8.86911 29935 ft 492 kts 182°
2026-04-24 17:02 42.57460 8.86523 29339 ft 488 kts 182°
2026-04-24 17:02 42.54094 8.86141 28759 ft 484 kts 182°
2026-04-24 17:03 42.47472 8.85391 27599 ft 477 kts 182°
2026-04-24 17:03 42.44185 8.85020 27020 ft 474 kts 182°
2026-04-24 17:03 42.40894 8.84648 26439 ft 470 kts 182°
2026-04-24 17:04 42.37676 8.84285 25871 ft 465 kts 182°
2026-04-24 17:04 42.31290 8.83566 24747 ft 458 kts 182°
2026-04-24 17:04 42.28117 8.83209 24187 ft 454 kts 182°
2026-04-24 17:05 42.24990 8.82858 23639 ft 451 kts 182°
2026-04-24 17:05 42.21888 8.82510 23094 ft 448 kts 182°
2026-04-24 17:05 42.15709 8.81819 22006 ft 441 kts 182°
2026-04-24 17:06 42.12675 8.81480 21470 ft 438 kts 182°
2026-04-24 17:06 42.06651 8.80805 20413 ft 431 kts 182°
2026-04-24 17:06 42.03700 8.80475 19910 ft 427 kts 182°
2026-04-24 17:07 42.00756 8.80146 19391 ft 425 kts 182°
2026-04-24 17:07 41.97836 8.79820 18936 ft 420 kts 182°
2026-04-24 17:07 41.92046 8.79174 18426 ft 418 kts 182°
2026-04-24 17:08 41.86250 8.78530 17932 ft 416 kts 182°
2026-04-24 17:08 41.83371 8.78210 17683 ft 414 kts 183°
2026-04-24 17:08 41.80511 8.78198 17465 ft 410 kts 171°
2026-04-24 17:09 41.75409 8.80970 16903 ft 390 kts 140°
2026-04-24 17:09 41.71858 8.86190 15550 ft 378 kts 126°
2026-04-24 17:10 41.70237 8.88926 14794 ft 375 kts 126°
2026-04-24 17:10 41.65487 8.96906 12990 ft 350 kts 126°
2026-04-24 17:11 41.61146 9.04169 11749 ft 322 kts 126°
2026-04-24 17:12 41.54525 9.15210 9805 ft 292 kts 125°